Location: Newark
(35.0167°N, 135.7667°E)
Time: 00:30:15
(UTC+00:00)

LightSail 2 - Visible Passes

Search period start: 20 October 2019 00:00
Search period end: 30 October 2019 00:00
Orbit: 707 x 722 km, 24.0° (Epoch: 19 October)

Date Brightness Start Highest point End Pass type
(mag) Time Alt. Az. Time Alt. Az. Time Alt. Az.
20 Oct 7.2 09:21:53 10° SW 09:25:23 18° SSW 09:28:52 10° SSE visible
21 Oct 7.6 10:11:31 10° SW 10:12:49 11° SSW 10:14:06 10° S visible
22 Oct 7.6 09:12:51 10° SW 09:15:25 14° SSW 09:17:58 10° SSE visible
